Regional Weather Roundup
Issued by NWS

Home | Current Version | Previous Version | Graphics & Text | Print | Product List | Glossary On
Versions: 1 2 3 4 5 6 7 8 9 10 11 12 13 14 15 16 17 18 19 20 21 22 23 24 25 26 27 28 29 30 31 32 33 34 35 36 37 38 39 40 41 42 43 44 45 46 47 48 49 50
000
ASUS43 KFSD 231102
RWRSD

WEATHER ROUNDUP FOR SOUTH DAKOTA
NATIONAL WEATHER SERVICE SIOUX FALLS SD
600 AM CDT TUE SEP 23 2014

NOTE: "FAIR" INDICATES FEW OR NO CLOUDS BELOW 12,000 FEET WITH NO
SIGNIFICANT WEATHER AND/OR OBSTRUCTIONS TO VISIBILITY.


SDZ001>005-009-010-012>017-231200-
NORTHWEST AND NORTH CENTRAL SOUTH DAKOTA

CITY           SKY/WX    TMP DP  RH WIND       PRES   REMARKS
FAITH            N/A     57  55  93 SE14      29.89F
MOBRIDGE       CLOUDY    64  56  75 S17       29.91S
$$

SDZ012>016-024>037-041>051-057-063-072>074-231200-
SOUTHWEST AND SOUTH CENTRAL SOUTH DAKOTA

CITY           SKY/WX    TMP DP  RH WIND       PRES   REMARKS
RAPID CTY ARPT MOCLDY    57  54  89 NW6       29.91S
PIERRE         MOCLDY    61  53  75 SE24G30   29.93F
CUSTER         MOCLDY    55  45  68 N5        30.02S
ELLSWORTH AFB  LGT RAIN  60  55  83 N10       29.90S
PHILIP         MOCLDY    56  51  84 E7        29.89F
PINE RIDGE     PTCLDY    55  51  86 SW5       29.92S
WINNER         CLOUDY    60  52  74 SE15G28   29.97S
$$

SDZ004>011-016>023-039-040-231200-
NORTHEAST SOUTH DAKOTA

CITY           SKY/WX    TMP DP  RH WIND       PRES   REMARKS
ABERDEEN       PTCLDY    58  52  80 SE8       30.00S
WATERTOWN      MOCLDY    54  49  83 SE13      30.07S
$$

SDZ017-020-022-023-036>040-048>070-231200-
SOUTHEAST SOUTH DAKOTA

CITY           SKY/WX    TMP DP  RH WIND       PRES   REMARKS
SIOUX FALLS    CLOUDY    59  52  77 S8        30.11S
HURON          CLOUDY    61  53  75 S8        30.02F
CHAMBERLAIN    CLOUDY    59  54  81 S12       29.99F
MITCHELL       CLOUDY    62  55  77 S9G18     30.05F
YANKTON        CLOUDY    61  54  77 S14       30.10S
$$

ABBREVIATIONS USED IN REMARKS
   TC - TEMPERATURE IN CELSIUS
  WCI - WIND CHILL INDEX
   HX - HEAT INDEX
  VSB - VISIBILITY



USA.gov is the U.S. government's official web portal to all federal, state and local government web resources and services.